Berlin, NH

5:07 PM EDT on July 27, 2017 (GMT -0400)
Berlin Municipal

Weather History for KBML - December, 2001

Change the Weather History Date:

Monday, December 31, 2001

  Actual Average Record
Temperature  
Mean Temperature 16 °F -  
Max Temperature 26 °F 24 °F 48 °F (2004)
Min Temperature 1 °F 4 °F -11 °F (2005)
Degree Days  
Heating Degree Days 50    
Moisture  
Dew Point 13 °F    
Average Humidity 77    
Maximum Humidity 100    
Minimum Humidity 53    
Precipitation  
Precipitation 0.01 in - - ()
Sea Level Pressure  
Sea Level Pressure 29.74 in    
Wind  
Wind Speed 8 mph (WSW)    
Max Wind Speed 16 mph    
Max Gust Speed 23 mph    
Visibility 7 miles    
Events Fog , Snow    
Averages and records for this station are not official NWS values.
T = Trace of Precipitation, MM = Missing Value Source: NWS Daily Summary

Daily Weather History Graph

Daily Weather History Graph

Search for Another Location

Airport or City:

Trip Planner

Search our weather history database for the weather conditions in past years. The results will help you decide how hot, cold, wet, or windy it might be!

Date:

Astronomy

Dec. 31, 2001 Rise Set
Actual Time 7:21 AM EST 4:14 PM EST
Civil Twilight 6:48 AM EST 4:47 PM EST
Nautical Twilight 6:11 AM EST 5:24 PM EST
Astronomical Twilight 5:35 AM EST 6:00 PM EST
Moon 5:38 PM EST (12/31) 8:34 AM EST (12/31)
Length of Visible Light 9h 59m
Length of Day
8h 52m
Full, 98% of the Moon is Illuminated
Dec 31
Full
Jan 5
Last Quarter
Jan 13
New
Jan 21
First Quarter
Jan 28
Full

Hourly Weather History & Observations

Time (EST) Temp. Windchill Dew Point Humidity Pressure Visibility Wind Dir Wind Speed Gust Speed Precip Events Conditions
12:52 AM 19.9 °F 10.1 °F 12.9 °F 74% 29.68 in 9.0 mi SW 8.1 mph - 0.00 in Snow Light Snow
1:30 AM 19.4 °F 10.4 °F 12.2 °F 74% 29.64 in 7.0 mi SW 6.9 mph - 0.00 in Snow Light Snow
1:52 AM 19.9 °F 11.1 °F 14.0 °F 78% 29.70 in 8.0 mi SSW 6.9 mph - 0.00 in Snow Light Snow
1:59 AM 19.4 °F 10.4 °F 12.2 °F 74% 29.65 in 6.0 mi SW 6.9 mph - 0.00 in Snow Light Snow
2:52 AM 19.9 °F 12.1 °F 14.0 °F 78% 29.70 in 10.0 mi Variable 5.8 mph - 0.00 in   Overcast
3:52 AM 19.9 °F 14.9 °F 14.0 °F 78% 29.70 in 10.0 mi Variable 3.5 mph - N/A   Overcast
4:52 AM 19.9 °F 11.1 °F 14.0 °F 78% 29.70 in 10.0 mi SW 6.9 mph - N/A   Overcast
5:52 AM 19.9 °F 10.1 °F 12.9 °F 74% 29.70 in 10.0 mi WSW 8.1 mph - N/A   Overcast
6:52 AM 19.9 °F 8.6 °F 12.0 °F 71% 29.71 in 10.0 mi WSW 10.4 mph 18.4 mph N/A   Overcast
7:52 AM 19.9 °F 7.9 °F 10.9 °F 68% 29.74 in 10.0 mi SW 11.5 mph - N/A   Overcast
8:52 AM 21.0 °F 11.4 °F 10.9 °F 65% 29.75 in 10.0 mi WSW 8.1 mph - N/A   Mostly Cloudy
9:52 AM 23.0 °F 11.1 °F 12.0 °F 63% 29.75 in 10.0 mi WSW 12.7 mph 20.7 mph N/A   Overcast
10:52 AM 23.0 °F 13.9 °F 12.0 °F 63% 29.74 in 10.0 mi West 8.1 mph - N/A   Overcast
11:52 AM 25.0 °F 16.3 °F 10.9 °F 55% 29.71 in 10.0 mi SW 8.1 mph 18.4 mph N/A   Mostly Cloudy
12:52 PM 24.1 °F 12.5 °F 14.0 °F 65% 29.71 in 10.0 mi SW 12.7 mph - N/A   Overcast
1:52 PM 26.1 °F 15.6 °F 10.9 °F 53% 29.70 in 10.0 mi WSW 11.5 mph 19.6 mph N/A   Overcast
2:52 PM 26.1 °F 16.8 °F 12.0 °F 55% 29.73 in 10.0 mi WSW 9.2 mph - N/A   Mostly Cloudy
3:52 PM 24.1 °F 15.2 °F 17.1 °F 75% 29.75 in 1.2 mi WNW 8.1 mph - 0.00 in Snow Light Snow
3:58 PM 23.0 °F 13.9 °F 19.4 °F 86% 29.70 in 0.8 mi WNW 8.1 mph - 0.00 in Snow Light Snow
4:11 PM 21.2 °F 14.9 °F 21.2 °F 100% 29.70 in 0.2 mi WNW 4.6 mph - 0.00 in Fog , Snow Heavy Snow
4:22 PM 21.2 °F 14.9 °F 19.4 °F 93% 29.70 in 1.0 mi Variable 4.6 mph - 0.00 in Snow Light Snow
4:36 PM 21.2 °F 16.4 °F 19.4 °F 93% 29.70 in 1.5 mi SW 3.5 mph - 0.00 in Snow Light Snow
4:39 PM 21.2 °F 16.4 °F 19.4 °F 93% 29.70 in 3.0 mi Variable 3.5 mph - 0.00 in Snow Light Snow
4:52 PM 21.9 °F 12.5 °F 16.0 °F 78% 29.76 in 10.0 mi West 8.1 mph - 0.00 in   Mostly Cloudy
5:52 PM 23.0 °F 12.4 °F 15.1 °F 72% 29.78 in 9.0 mi West 10.4 mph - 0.00 in   Mostly Cloudy
6:04 PM 21.2 °F 7.3 °F 17.6 °F 86% 29.73 in 1.8 mi WNW 16.1 mph 21.9 mph 0.00 in Snow Light Snow
6:08 PM 21.2 °F 10.1 °F 17.6 °F 86% 29.74 in 0.8 mi WNW 10.4 mph 21.9 mph 0.00 in Snow Light Snow
6:16 PM 19.4 °F 9.5 °F 17.6 °F 93% 29.74 in 0.5 mi NW 8.1 mph 16.1 mph 0.01 in Fog , Snow Snow
6:26 PM 19.4 °F 8.6 °F 17.6 °F 93% 29.74 in 0.8 mi WNW 9.2 mph - 0.01 in Snow Light Snow
6:29 PM 19.4 °F 8.6 °F 15.8 °F 86% 29.74 in 1.5 mi WNW 9.2 mph - 0.01 in Snow Light Snow
6:33 PM 19.4 °F 10.4 °F 15.8 °F 86% 29.74 in 3.0 mi Variable 6.9 mph - 0.01 in Snow Light Snow
6:52 PM 19.9 °F 7.9 °F 10.9 °F 68% 29.82 in 4.0 mi West 11.5 mph 23.0 mph 0.01 in Snow Light Snow
7:52 PM 18.0 °F 6.9 °F 9.0 °F 68% 29.85 in 10.0 mi West 9.2 mph - 0.00 in   Clear
8:52 PM 15.1 °F - 8.1 °F 74% 29.86 in 10.0 mi Calm Calm - N/A   Clear
9:52 PM 9.0 °F 2.4 °F 6.1 °F 88% 29.87 in 10.0 mi West 3.5 mph - N/A   Clear
10:52 PM 5.0 °F - 3.0 °F 92% 29.88 in 10.0 mi Calm Calm - N/A   Mostly Cloudy
11:52 PM 1.9 °F - -0.9 °F 88% 29.88 in 9.0 mi Calm Calm - N/A   Partly Cloudy